Regional Weather Roundup
Issued by NWS

Home | Current Version | Previous Version | Text Only | Print | Product List | Glossary Off
Versions: 1 2 3 4 5 6 7 8 9 10 11 12 13 14 15 16 17 18 19 20 21 22 23 24 25 26 27 28 29 30 31 32 33 34 35 36 37 38 39 40 41 42 43 44 45 46 47 48 49 50

000
ASUS43 KIND 222359
RWRIN

WEATHER ROUNDUP FOR INDIANA
NATIONAL WEATHER SERVICE INDIANAPOLIS IN
800 PM EDT THU JUN 22 2017

NOTE: "FAIR" INDICATES FEW OR NO CLOUDS BELOW 12,000 FEET WITH NO
SIGNIFICANT WEATHER AND/OR OBSTRUCTIONS TO VISIBILITY.

* - STATION DOES NOT REPORT WEATHER SUCH AS PRECIPITATION OR FOG.

+ - STATION NOT QUALITY CONTROLLED BY THE NATIONAL WEATHER SERVICE.
    USE DATA WITH CAUTION...ESPECIALLY DEWPOINT AND RELATIVE
    HUMIDITY OBSERVATIONS.

INZ001>003-010>013-019-020-230100-
NORTHWEST INDIANA

CITY           SKY/WX    TMP DP  RH WIND       PRES   REMARKS
GARY /AIRPORT/ MOSUNNY   82  70  65 S9        29.74F
KNOX *+        CLOUDY    79  59  50 SW16G24   29.79R
MICHIGAN CITY+ CLOUDY    81  70  69 S8G17     29.76F
MONTICELLO +   CLOUDY    79  68  69 S13G24    29.80S
6HR MIN TEMP:  78; 6HR MAX TEMP:  85;

RENSSELAER +   CLOUDY    81  68  65 S17       29.79F

$$

LMZ046-743>745-230100-
SOUTHERN LAKE MICHIGAN

STATION/POSITION TIME  TEMP    WIND        PRES    WAVE
                       AIR SEA DIR/SP/G            HT
                 (UTC) (F)     (DEG/KT/KT) (MB)    (FT)
BURNS HARBOR     2340   81     200/ 21/ 30 1007.5F
MICHIGAN CITY    2330   81     190/ 18/ 21   N/A
5NW MICH CITY    2350   77 68  190/ 14/ 19   N/A     2

$$

INZ004-005-014>016-021>024-230100-
NORTH CENTRAL INDIANA

CITY           SKY/WX    TMP DP  RH WIND       PRES   REMARKS
ELKHART        PTSUNNY   79  68  69 S12G23    29.79R
GOSHEN         CLOUDY    80  67  64 SW13      29.80R
6HR MIN TEMP:  80; 6HR MAX TEMP:  86; 6HR PCP: TRACE;

SOUTH BEND     CLOUDY    80  70  71 S17G26    29.78S
6HR MIN TEMP:  80; 6HR MAX TEMP:  87; 6HR PCP:  0.02;


$$

INZ006>009-017-018-025>027-230100-
NORTHEAST INDIANA

CITY           SKY/WX    TMP DP  RH WIND       PRES   REMARKS
FORT WAYNE     MOSUNNY   81  66  60 S23G31    29.82F
6HR MIN TEMP:  81; 6HR MAX TEMP:  88; 6HR PCP: TRACE;

KENDALLVILLE + CLOUDY    81  67  62 SW20G26   29.82R

$$

INZ028-029-035-036-043>045-051>053-230100-
WEST CENTRAL INDIANA

CITY           SKY/WX    TMP DP  RH WIND       PRES   REMARKS
CRAWFORDSVL +  CLOUDY    73  69  89 S14       29.84F
6HR MIN TEMP:  73; 6HR MAX TEMP:  81;

LAFAYETTE      CLOUDY    76  69  79 S9G17     29.81S
6HR MIN TEMP:  76; 6HR MAX TEMP:  84; 6HR PCP: TRACE;

TERRE HAUTE    CLOUDY    75  70  84 S13       29.83S
6HR MIN TEMP:  73; 6HR MAX TEMP:  80; 6HR PCP:  0.03;


$$

INZ030>032-037>040-046>048-054>057-064-065-230100-
CENTRAL INDIANA

CITY           SKY/WX    TMP DP  RH WIND       PRES   REMARKS
COLUMBUS       CLOUDY    72  68  88 SE8       29.88F
GREENWOOD *+   CLOUDY    75  67  76 S13       29.88S
INDIANAPOLIS   CLOUDY    75  69  81 S18       29.85F
6HR MIN TEMP:  75; 6HR MAX TEMP:  84; 6HR PCP: TRACE;

-EAGLE CREEK   CLOUDY    76  67  73 S10G16    29.85F
6HR MIN TEMP:  76; 6HR MAX TEMP:  85; 6HR PCP:  0.02;

KOKOMO +       CLOUDY    78  69  73 S20G28    29.84S
6HR MIN TEMP:  78; 6HR MAX TEMP:  85;

MT COMFORT *+  CLOUDY    75  68  78 S13G20    29.88F
SHELBYVILLE    CLOUDY    76  68  76 S13       29.87F
6HR MIN TEMP:  76; 6HR MAX TEMP:  85; 6HR PCP: TRACE;


$$

INZ033-034-041-042-049-050-058-059-230100-
EAST CENTRAL INDIANA

CITY           SKY/WX    TMP DP  RH WIND       PRES   REMARKS
MUNCIE         CLOUDY    78  68  71 S17G26    29.86F
6HR MIN TEMP:  78; 6HR MAX TEMP:  86;

RICHMOND +     CLOUDY    72  66  83 S14G20    29.92F

$$

INZ060-061-067>069-081>083-085>088-230100-
SOUTHWEST INDIANA

CITY           SKY/WX    TMP DP  RH WIND       PRES   REMARKS
EVANSVILLE     CLOUDY    75  72  90 SE7       29.83F
6HR MIN TEMP:  73; 6HR MAX TEMP:  75; 6HR PCP:  0.07;

HUNTINGBURG *+ CLOUDY    73  71  93 SE9       29.86S
6HR MIN TEMP:  71; 6HR MAX TEMP:  74; 6HR PCP:  0.50;


$$

INZ062-063-066-070>080-084-089>092-230100-
SOUTH CENTRAL AND SOUTHEAST INDIANA

CITY           SKY/WX    TMP DP  RH WIND       PRES   REMARKS
BLOOMINGTON    LGT RAIN  73  68  84 S8G18     29.86F
6HR MIN TEMP:  73; 6HR MAX TEMP:  81; 6HR PCP:  0.04;

SEYMOUR +      RAIN      73  72  94 SE9       29.88F

$$




USA.gov is the U.S. government's official web portal to all federal, state and local government web resources and services.